Theta_e
310 309 309 309 310 310 310 310 310 310 310 310 311 310 310 310 310 304 299 305 308 319 319 310 310 312 313 311 313 313 300 296 297 298 302 310 309 312 312 309 317 321 322 329 332
310 310 310 309 310 310 310 310 310 310 310 310 310 311 310 309 302 298 307 312 314 315 309 305 303 307 304 306 308 304 299 299 305 305 304 308 310 309 307 308 315 322 328 331 331
312 311 310 310 310 310 310 310 310 310 310 310 310 310 310 308 296 295 314 313 313 313 308 308 306 304 300 304 304 304 298 304 304 306 308 307 307 311 305 305 311 316 324 327 329
311 311 311 311 311 311 310 310 310 310 310 310 310 310 310 304 283 304 313 312 311 311 306 304 302 297 295 297 304 299 303 305 306 307 305 305 309 307 304 305 309 317 327 327 326
311 311 310 310 311 311 311 311 310 310 310 311 310 310 305 294 293 304 311 309 306 304 302 301 297 297 293 297 300 298 302 305 307 307 306 307 304 304 306 307 310 319 327 325 324
311 311 310 310 310 310 310 310 310 310 310 310 310 310 299 287 302 303 303 302 302 301 299 300 298 300 296 296 295 301 302 304 305 305 306 303 304 305 305 310 307 316 324 325 326
311 311 311 310 310 310 310 310 310 310 310 310 310 305 296 292 302 303 303 303 304 302 297 300 301 298 297 295 301 299 297 301 303 304 303 305 300 301 304 308 308 310 321 324 326
311 311 311 310 310 310 310 310 310 309 310 310 309 303 291 302 303 302 302 300 303 304 301 301 302 299 297 300 297 293 293 291 300 303 303 302 294 304 305 305 305 309 317 322 325
312 311 310 310 309 309 310 309 309 309 309 307 301 298 289 304 298 302 303 298 300 302 302 301 300 296 296 291 288 289 285 288 295 303 301 299 296 302 303 304 305 309 313 319 323
312 311 311 310 309 309 308 308 308 307 304 302 301 291 295 292 297 299 302 300 296 298 294 293 294 290 290 287 280 284 285 289 292 298 300 296 296 301 303 300 305 308 312 317 317
312 311 310 310 309 308 305 300 294 293 295 288 289 289 291 296 299 296 300 299 298 293 285 292 287 283 287 288 290 291 287 288 291 295 297 295 296 299 302 300 297 307 309 314 310
312 311 310 309 308 306 303 294 294 295 285 292 292 292 295 296 289 293 301 290 287 285 290 288 284 289 292 292 291 290 286 285 290 294 293 294 295 300 300 297 295 296 306 306 305
311 311 309 308 305 303 298 296 301 299 285 288 292 291 293 293 288 291 298 290 287 285 286 285 288 292 291 289 289 289 288 287 287 291 293 292 291 295 298 298 297 298 301 304 303
311 310 309 306 299 301 296 301 301 300 278 283 286 292 293 292 288 299 301 295 288 283 287 288 293 290 291 288 290 286 294 291 289 287 283 292 283 291 294 295 294 296 294 294 296
310 309 308 306 300 296 298 301 299 295 267 283 285 296 294 290 291 294 302 296 287 285 286 283 289 289 288 289 290 289 293 291 290 288 286 286 283 290 294 292 291 292 291 291 292
310 309 306 301 302 299 300 299 294 278 268 277 286 285 284 290 291 294 294 298 294 288 287 287 294 293 291 293 292 294 291 290 289 287 279 285 284 281 290 292 291 291 291 290 290
309 306 303 301 295 300 299 293 279 270 280 276 279 284 284 285 286 289 288 286 283 280 280 286 286 293 295 289 293 291 286 277 275 277 277 287 282 280 287 290 294 289 289 290 289
304 302 301 298 299 298 295 283 270 272 273 282 281 282 282 285 285 285 286 284 287 286 282 279 278 287 291 290 287 288 286 280 274 275 275 282 279 281 288 290 293 291 289 289 289
305 302 299 299 298 296 287 276 271 275 279 278 280 277 280 284 284 284 283 283 286 287 280 278 281 289 291 293 291 286 281 286 280 276 276 280 281 286 288 288 288 288 289 288 287
300 298 296 299 297 294 284 276 276 281 281 281 275 279 276 278 280 282 282 284 284 288 290 284 280 287 289 292 291 288 288 278 280 269 270 278 278 279 285 286 287 286 288 287 287
299 289 297 299 296 286 277 275 278 282 282 279 277 277 279 279 280 281 281 284 284 285 289 287 283 284 288 285 284 285 281 283 282 279 276 273 275 286 286 287 287 287 287 287 287
296 284 298 297 284 283 275 277 281 281 284 282 282 281 280 280 280 281 280 282 287 288 284 287 285 278 281 287 289 289 286 285 278 274 278 279 278 288 288 288 288 286 287 286 286
286 290 298 294 280 276 279 279 281 280 281 280 280 283 283 280 276 281 283 288 288 287 284 286 279 276 279 284 288 285 288 287 286 283 276 274 277 288 289 287 288 285 285 285 284
291 282 286 287 286 279 275 277 278 283 282 283 281 283 281 279 283 280 281 287 289 288 290 289 281 276 273 278 284 283 285 285 281 276 277 278 279 284 286 286 287 287 286 285 284
288 281 283 280 281 281 281 280 278 277 282 284 281 280 280 276 278 280 283 285 288 290 287 285 273 278 281 283 284 283 283 283 279 276 273 278 279 283 285 285 287 288 287 286 285
284 284 285 281 283 282 282 279 277 279 280 279 278 280 281 277 277 277 279 281 282 285 283 284 272 276 273 282 282 280 282 282 279 279 279 280 280 286 288 288 288 288 288 287 286
290 290 288 284 282 282 279 279 279 281 282 283 282 281 278 279 281 282 284 285 282 281 280 278 274 271 267 275 276 274 278 281 282 283 280 277 282 286 285 286 286 288 289 288 288
Wind_Speed
7 8 9 10 10 11 12 12 13 14 14 15 14 14 16 18 19 16 19 15 11 17 15 15 13 13 17 12 7 4 9 10 18 24 18 15 7 11 2 2 3 3 5 9 14
8 9 10 11 11 12 12 13 14 14 15 14 15 15 15 16 17 19 23 22 20 15 14 15 16 14 15 16 8 7 11 18 8 18 19 21 4 8 4 6 5 11 14 23 11
10 10 11 12 12 13 13 14 14 15 16 16 16 17 15 11 15 13 13 20 18 17 17 18 16 16 17 20 20 11 17 5 16 20 10 19 18 16 4 6 6 12 18 20 14
11 12 13 13 14 14 15 16 16 16 17 17 17 18 17 11 9 4 10 10 6 9 15 18 19 21 20 21 25 12 19 14 9 3 2 9 12 17 6 3 5 3 21 18 16
12 12 12 13 15 16 17 17 18 18 19 19 19 19 13 12 26 19 16 16 16 8 13 19 22 21 24 13 22 26 16 22 8 12 5 9 11 10 9 3 7 2 17 14 15
11 13 13 14 15 17 18 19 20 20 21 21 20 19 14 23 18 20 19 17 11 11 15 14 18 21 19 22 20 11 19 20 17 10 11 6 9 5 6 5 6 3 11 17 13
13 13 15 16 16 17 18 19 21 22 22 22 21 13 16 31 14 19 20 8 9 12 15 16 11 20 16 18 12 17 13 12 20 17 8 7 13 6 4 5 11 4 7 9 11
13 12 13 15 16 16 18 19 21 23 23 23 21 14 18 14 15 19 20 23 18 14 14 15 13 20 22 12 13 12 11 22 16 18 8 13 15 11 6 6 4 1 5 7 12
14 13 15 15 14 16 17 19 23 25 23 19 12 10 13 7 3 8 8 10 16 14 13 13 10 16 13 21 11 10 7 6 18 23 10 11 7 3 3 5 6 5 8 10 9
13 13 14 14 13 14 15 20 24 17 9 12 2 8 13 11 13 15 15 14 14 10 6 6 8 11 17 15 13 6 7 13 11 20 16 19 9 4 4 3 12 6 10 8 7
15 16 12 11 11 11 9 8 4 3 5 8 11 6 15 12 17 10 9 7 9 6 10 18 12 20 18 16 10 10 8 6 2 6 17 19 11 7 7 5 7 10 4 8 8
15 15 9 8 7 5 5 5 6 5 13 15 17 15 14 6 8 14 5 4 3 6 7 10 18 16 17 13 18 13 11 5 7 9 7 10 13 9 9 3 7 9 10 9 6
14 10 7 5 2 3 2 3 4 7 7 9 5 3 5 2 6 8 5 9 1 3 10 8 4 14 19 10 13 11 14 11 6 10 12 10 4 10 3 5 4 8 12 11 10
14 7 8 6 1 1 1 4 4 2 5 7 4 1 3 4 6 5 1 1 3 5 8 9 10 23 12 8 12 9 14 14 18 6 4 3 6 9 7 7 4 8 9 9 9
8 9 11 10 4 1 4 4 3 2 5 12 5 1 12 4 8 4 4 2 3 2 4 3 7 12 8 10 4 3 17 16 19 9 10 5 5 2 16 9 9 9 11 7 7
10 12 10 2 2 3 4 4 2 2 5 8 7 11 14 4 8 8 3 4 4 2 1 4 5 2 9 18 11 16 14 13 6 5 3 7 3 3 4 6 11 9 11 8 7
16 11 3 3 3 4 3 2 2 2 6 10 10 12 10 7 8 8 5 8 5 7 9 1 4 4 14 9 8 13 4 5 3 3 4 12 7 5 7 8 8 14 9 8 10
15 9 6 5 4 4 2 2 2 1 4 7 8 18 4 10 4 8 7 4 7 2 2 5 5 1 6 6 7 8 5 2 5 4 5 5 3 3 6 7 9 12 9 5 8
9 3 2 4 3 2 3 2 2 4 6 11 12 6 6 10 7 5 5 8 8 9 4 8 4 2 2 10 3 3 3 4 5 4 6 5 5 5 6 6 9 10 8 5 5
0 2 3 6 3 1 3 4 1 4 6 5 6 6 5 10 10 10 9 5 9 10 3 0 2 5 4 4 10 6 2 3 5 4 5 3 5 4 5 6 6 9 7 7 3
2 3 3 6 2 5 3 3 2 3 3 4 6 5 5 6 8 8 8 2 7 10 10 1 4 5 5 8 5 5 4 4 4 2 3 4 3 5 6 5 6 7 7 8 6
2 2 4 4 3 2 3 2 2 3 2 3 4 5 3 7 6 5 7 5 9 7 7 5 3 6 6 2 4 6 3 6 2 4 2 3 4 5 6 7 8 8 7 6 7
2 2 2 3 2 2 2 1 1 3 3 4 3 7 5 3 4 6 5 5 10 10 6 7 5 3 3 2 5 6 3 3 3 3 3 4 4 5 6 8 7 8 7 5 6
2 1 4 4 1 3 2 3 3 3 3 2 4 6 8 2 2 5 7 5 7 7 9 4 5 6 4 3 2 4 3 4 4 5 0 5 9 6 7 8 7 7 8 6 5
4 1 0 3 4 3 2 1 3 4 3 3 0 8 5 4 6 6 6 4 5 11 5 4 5 6 8 6 6 6 7 7 5 2 6 6 9 7 7 8 7 8 8 7 5
5 4 2 1 3 1 4 4 4 3 6 5 5 6 7 4 5 5 8 7 5 8 5 5 2 2 8 7 8 8 6 8 6 5 8 9 9 9 7 8 8 6 6 6 5
1 0 0 3 1 2 3 3 3 1 2 2 6 3 5 3 4 7 6 5 4 5 5 4 4 3 2 5 4 7 6 7 5 6 5 4 4 6 7 9 7 7 7 6 6
Wind_Direction
333 336 325 325 324 322 323 321 320 320 319 321 320 323 326 325 315 301 270 248 265 256 249 264 271 275 236 229 203 245 222 227 204 224 257 243 207 224 43 186 154 124 100 93 144
317 316 313 312 316 316 316 314 314 316 313 312 317 317 315 325 309 288 266 272 263 263 261 240 246 258 244 224 216 215 211 223 193 213 240 272 268 192 166 233 143 97 95 122 179
300 302 306 308 311 308 308 307 307 305 306 309 308 306 308 321 304 267 318 244 249 247 247 255 253 241 256 234 221 192 238 196 218 226 251 276 289 250 169 219 199 160 135 148 157
305 306 300 298 298 301 301 300 301 300 301 300 299 297 298 296 273 69 77 81 55 323 244 246 248 243 248 235 219 225 229 212 212 132 208 239 294 260 150 152 336 280 146 149 148
300 296 300 300 297 296 294 296 299 298 297 296 294 295 299 262 250 265 267 276 271 251 252 240 235 233 236 252 219 235 250 209 214 166 198 312 267 267 205 180 26 1 139 144 163
296 284 288 294 300 297 297 297 297 297 297 296 294 296 283 270 269 266 267 263 256 249 245 238 248 238 241 243 250 263 223 227 181 185 206 243 258 293 252 129 43 328 165 158 178
284 281 283 289 289 296 297 296 297 297 296 293 292 292 273 253 289 292 295 248 246 239 244 238 242 244 227 258 231 256 226 226 184 153 171 166 260 228 292 154 194 343 230 166 166
289 283 286 287 288 293 297 297 297 293 292 291 291 284 268 276 263 260 248 255 231 228 241 252 250 259 239 261 245 231 254 205 195 169 177 156 229 235 184 174 168 158 221 222 172
288 285 282 282 287 294 298 300 295 289 291 290 276 252 272 262 297 305 304 278 288 232 219 244 240 246 232 236 211 207 269 204 174 174 153 159 181 323 167 181 173 184 246 206 149
284 282 282 276 282 295 305 305 283 291 270 249 37 285 238 307 325 303 272 260 252 225 223 231 229 207 220 204 205 222 222 171 191 178 161 176 167 132 0 312 195 184 278 190 98
284 281 280 268 277 299 326 306 358 278 327 269 270 254 279 286 296 258 284 234 223 160 208 212 216 203 209 225 208 177 156 165 74 82 149 175 161 152 61 14 48 170 61 83 91
280 283 272 250 273 309 291 325 47 313 297 280 263 248 255 280 292 294 187 177 196 211 191 156 223 229 196 216 212 230 151 118 84 91 81 161 178 140 107 52 30 11 119 100 73
285 280 239 217 266 268 294 45 354 327 278 296 262 280 285 299 285 280 192 179 297 39 215 203 198 199 190 210 204 223 184 158 123 97 71 108 160 151 122 113 52 63 64 82 95
272 248 186 155 222 71 62 44 342 334 289 325 348 44 300 222 261 185 334 139 31 342 170 231 194 190 200 175 213 193 175 129 131 119 124 224 152 186 142 135 93 117 70 61 68
262 181 167 189 345 288 27 345 331 243 316 328 347 335 317 300 283 326 296 92 52 342 11 62 178 190 204 165 39 161 135 133 141 144 132 173 96 126 142 170 151 101 96 69 70
152 149 141 157 227 40 336 336 247 235 275 335 333 332 345 337 351 299 61 55 105 12 243 275 343 210 182 121 206 146 123 108 78 153 87 162 102 173 143 184 143 106 109 118 94
119 113 108 22 27 336 331 239 273 0 357 331 331 330 329 331 344 353 54 47 38 346 13 79 28 349 130 99 165 144 202 104 99 60 75 131 82 93 92 49 148 138 112 125 112
105 85 80 53 349 336 262 60 0 162 10 335 320 307 336 340 3 341 341 39 37 84 289 336 113 10 297 128 155 151 19 8 111 132 108 4 114 103 82 86 73 113 102 82 100
121 121 81 16 347 308 64 38 37 17 349 325 311 347 344 358 333 335 44 7 14 22 30 359 58 92 79 64 52 229 81 293 100 44 87 160 102 116 126 115 123 126 132 127 71
185 160 69 350 341 230 71 90 36 9 340 308 350 0 323 338 347 355 22 6 334 348 9 107 136 16 49 18 25 50 33 47 15 98 96 215 116 96 176 138 136 138 156 145 140
313 47 45 346 269 55 53 72 38 349 341 325 343 310 324 338 324 334 7 50 348 318 313 44 303 39 54 25 23 12 26 32 100 53 126 140 76 17 57 135 147 116 132 149 154
15 42 19 322 46 42 57 52 310 351 305 302 285 283 285 345 325 25 18 349 329 307 351 347 33 52 56 26 320 25 34 15 59 301 26 81 82 58 68 74 105 111 114 105 115
74 9 51 309 60 82 98 86 6 349 357 342 297 357 321 341 318 15 9 5 342 19 11 331 17 101 102 107 15 69 333 17 344 51 5 92 113 126 102 92 107 108 101 101 99
93 19 360 37 357 104 170 42 7 319 289 5 305 313 336 11 322 326 2 1 340 341 343 43 49 56 83 28 80 102 79 359 74 58 40 60 128 125 117 111 102 109 115 131 131
17 88 230 30 43 40 332 24 23 3 331 14 233 10 345 329 332 8 347 342 339 345 17 65 71 63 66 38 38 70 57 37 75 235 99 149 111 103 88 88 96 119 122 123 127
123 149 168 111 314 150 342 40 32 17 356 9 18 350 28 55 12 329 341 17 25 324 23 356 140 50 29 34 67 79 56 79 53 11 48 96 72 97 107 99 91 107 124 133 144
233 154 274 190 170 316 17 29 28 294 100 26 305 315 21 31 342 318 306 329 333 355 8 48 123 36 350 335 16 52 1 27 83 51 116 89 110 118 89 78 54 55 73 77 112